Location: Khawr as Sal?m
(22.3500°N, 31.6833°E)
Time: 04:27:28
(UTC+00:00)

Daily predictions for brighter satellites

Satellite Brightness Start Highest point End
(mag) Time Altitude Azimuth Time Altitude Azimuth Time Altitude Azimuth
Cosmos 1066 Rocket 4.5 01:14:24 69° ENE 01:14:24 69° ENE 01:19:52 10° NNE
CZ-2C R/B 3.2 01:11:08 10° NNE 01:15:11 48° ENE 01:15:11 48° ENE
Cosmos 1833 Rocket 3.0 01:11:16 10° N 01:16:52 63° ENE 01:22:26 10° SSE
BREEZE M DEB (TANK) 3.8 01:18:19 48° N 01:19:29 62° NE 01:32:42 10° SE
Hubble Space Telescope 2.8 01:25:10 23° ESE 01:25:10 23° ESE 01:26:46 10° ESE
COSMOS 2406 3.2 01:19:00 10° NNW 01:29:40 13° SSE 01:30:19 10° SSE
Cosmos 2221 Rocket 4.2 01:30:33 55° NE 01:30:33 55° NE 01:34:17 10° NNE
Milstar 3 3.5 01:27:23 44° WNW 01:30:06 64° N 01:42:34 10° ENE
Cosmos 923 Rocket 4.2 01:27:03 10° N 01:32:14 69° ENE 01:37:26 10° SSE
Cosmos 1934 Rocket 4.0 01:28:52 10° N 01:35:09 78° E 01:41:18 10° S
Cosmos 2297 3.8 01:37:23 57° NW 01:37:23 57° NW 01:42:33 10° N
Centaur D-1AR AC-39 2.2 01:37:29 63° S 01:37:49 65° SSE 01:48:38 10° E
Cosmos 1943 Rocket 2.0 01:37:49 73° SSW 01:38:24 87° WNW 01:44:04 10° NNE
Cosmos 2369 Rocket 3.1 01:36:53 22° SSE 01:40:06 44° ESE 01:45:22 10° NNE
ASTRO E2 3.4 01:43:57 51° NE 01:43:57 51° NE 01:47:04 10° ENE
Ablestar 008 4.5 01:39:28 10° NNW 01:45:03 67° WSW 01:50:34 10° SSE
ARIANE 5 R/B 4.4 01:44:54 10° NNW 01:46:27 16° NW 01:46:27 16° NW
Delta 7925 Rocket 3.3 01:53:16 55° NW 01:54:15 75° NNE 01:59:25 10° E
USA 81 4.1 01:58:14 10° NNW 02:03:22 54° W 02:05:25 34° SSW
PSLV R/B 3.5 02:03:54 10° N 02:08:02 57° WNW 02:08:46 49° WSW
ATLAS 5 CENTAUR R/B 2.9 02:02:34 10° NNW 02:08:54 69° ENE 02:16:03 10° SSE
Cosmos 1300 Rocket 3.4 02:04:45 10° N 02:09:12 85° W 02:13:37 10° S
Cosmos 1727 Rocket 3.9 02:03:08 10° S 02:09:17 81° W 02:15:31 10° N
Cosmos 2112 Rocket 3.9 02:06:55 10° NNW 02:12:14 75° WSW 02:17:32 10° S
IRAS Rocket 4.1 02:07:12 10° S 02:12:40 78° WSW 02:18:10 10° NNW
Delta 2 Rocket 4.1 02:10:53 28° WNW 02:14:06 62° N 02:20:30 10° ENE
Sich 1 Rocket 3.7 02:13:00 10° NNW 02:17:27 53° W 02:21:53 10° S
Orbus 7S 3.7 02:19:59 41° WSW 02:20:32 47° SSW 02:22:59 10° SE
Cosmos 1805 3.1 02:17:07 10° NNW 02:20:59 66° W 02:24:50 10° S
Cosmos 2150 Rocket 4.0 02:16:13 14° SSW 02:21:00 80° WNW 02:26:28 10° NNE
Cosmos 1125 Rocket 3.7 02:16:27 10° S 02:21:44 76° ESE 02:27:00 10° NNE
Meteor 1-15 Rocket 4.1 02:17:02 10° N 02:22:35 74° W 02:28:10 10° S
Meteor 2-20 Rocket 4.4 02:17:11 10° S 02:23:17 86° W 02:29:25 10° N
ADEOS 3.8 02:29:46 10° NNE 02:34:58 71° ESE 02:40:09 10° S
Cosmos 1733 3.3 02:33:54 10° NNW 02:37:31 47° W 02:41:07 10° SSW
Cosmos 1707 3.1 02:34:36 10° S 02:38:27 68° E 02:42:18 10° N
ALOS 3.0 02:34:49 10° NNW 02:38:55 31° WNW 02:42:06 15° SW
FENGYUN 3A 4.3 02:34:32 10° N 02:39:20 34° WNW 02:43:42 12° SW
Cosmos 2082 Rocket 2.6 02:36:14 10° NW 02:41:25 39° WSW 02:46:34 10° S
Lacrosse 5 rocket 3.4 02:43:46 13° SW 02:43:46 13° SW 02:44:51 10° SSW
Fermi 3.9 02:40:51 18° W 02:43:46 66° N 02:47:54 10° ENE
Cosmos 1378 Rocket 4.2 02:40:19 11° SSW 02:44:12 34° W 02:48:14 10° NNW
Delta 168 3.4 02:40:13 15° W 02:44:35 61° N 02:48:24 10° ENE
SL-24 R/B 4.2 02:39:48 10° S 02:44:41 62° WSW 02:48:55 10° NNW
Cosmos 1842 4.2 02:44:27 15° SW 02:46:49 26° W 02:50:06 10° NNW
Cosmos 2263 4.3 02:42:07 10° SSW 02:47:38 56° WNW 02:53:15 10° N
Cosmos 1356 Rocket 4.5 02:47:28 10° NW 02:50:48 24° W 02:54:10 10° SSW
CZ-2C R/B 4.3 02:52:43 10° WNW 02:53:34 10° WNW 02:54:25 10° W
BREEZE-M DEB (TANK) 3.4 02:50:22 13° WSW 02:54:14 27° NW 02:56:37 10° N
Cosmos 1656 Rocket 3.7 02:50:46 10° SSW 02:56:01 54° WNW 03:01:18 10° N
CZ-4C R/B 3.0 02:54:01 10° S 02:57:34 62° WSW 03:01:06 10° NNW
Cosmos 1674 4.4 02:54:57 10° SSE 02:58:25 37° E 03:01:53 10° NNE
GP-B 3.9 02:55:28 10° NNW 02:59:22 31° W 03:03:15 10° SW
H-2A R/B 2.0 02:58:06 11° W 03:00:21 51° N 03:08:19 10° ENE
Hubble Space Telescope 2.2 03:00:31 11° WSW 03:03:36 22° SSW 03:06:48 10° SSE
ATLAS 2AS CENTAUR R/B 4.3 03:00:17 10° N 03:06:46 39° ENE 03:12:47 10° SE
Meteor 1-31 Rocket 3.3 03:05:16 10° N 03:08:48 37° WNW 03:12:21 10° SW
Cosmos 1802 Rocket 4.3 03:02:59 10° N 03:09:13 77° E 03:15:21 10° S
FALCON 9 DEB 3.6 03:05:50 10° NNW 03:09:16 67° NE 03:12:41 10° SE
Landsat 5 4.1 03:09:17 10° SSW 03:13:16 37° W 03:17:23 10° NNW
Cosmos 1461 3.4 03:11:14 10° SSW 03:15:53 80° ESE 03:20:36 10° NNE
Cosmos 1867 4.0 03:12:02 10° SSW 03:17:22 69° ESE 03:22:46 10° NNE
